CW6682 Weather Reports


Display with metric or nautical units.
time (UTC)temp
F
wind
direction
speed
MPH
gust
MPH
rain 1hr
in
rain 24hr
in
rain mn
in
humidity
%
barometer
mb
20260502190044 86 106 4.0 0.0 0.00 0.00 0.00 21 1010.2
20260502184552 86 105 6.0 0.0 0.00 0.00 0.00 21 1010.5
20260502183037 85 138 6.0 0.0 0.00 0.00 0.00 21 1010.7
20260502181539 85 91 5.0 0.0 0.00 0.00 0.00 21 1011.0
20260502163007 81 115 4.0 0.0 0.00 0.00 0.00 27 1011.1
20260502161503 81 121 4.0 0.0 0.00 0.00 0.00 28 1011.2
20260502151553 78 121 3.0 0.0 0.00 0.00 0.00 29 1010.7
20260502123012 65 292 0.0 0.0 0.00 0.00 0.00 34 1009.1
20260502121532 65 292 0.0 0.0 0.00 0.00 0.00 33 1008.9
20260502114505 67 292 0.0 0.0 0.00 0.00 0.00 33 1008.6
20260502113004 67 292 0.0 0.0 0.00 0.00 0.00 33 1008.6
20260502111502 67 292 0.0 0.0 0.00 0.00 0.00 33 1008.6
20260502110001 68 292 0.0 0.0 0.00 0.00 0.00 32 1008.6
20260502104600 68 292 0.0 0.0 0.00 0.00 0.00 32 1008.4
20260502103108 69 292 0.0 0.0 0.00 0.00 0.00 30 1008.2
20260502101609 70 292 0.0 0.0 0.00 0.00 0.00 29 1008.1
20260502070036 74 288 1.0 0.0 0.00 0.00 0.00 27 1007.7
20260502064536 74 288 2.0 0.0 0.00 0.00 0.00 27 1007.6
20260502063034 75 288 1.0 0.0 0.00 0.00 0.00 25 1007.5
20260502061537 75 288 3.0 0.0 0.00 0.00 0.00 26 1007.2
20260502060033 76 288 2.0 0.0 0.00 0.00 0.00 25 1007.2
20260502054540 77 288 2.0 0.0 0.00 0.00 0.00 25 1007.1
20260502053037 77 287 0.0 0.0 0.00 0.00 0.00 25 1007.1
20260502051533 77 287 0.0 0.0 0.00 0.00 0.00 24 1007.0
20260502050031 78 288 0.0 0.0 0.00 0.00 0.00 24 1007.0
20260502044530 78 288 0.0 0.0 0.00 0.00 0.00 25 1007.0
20260502043031 78 288 0.0 0.0 0.00 0.00 0.00 25 1006.7
20260502041530 79 287 0.0 0.0 0.00 0.00 0.00 24 1006.6
20260502040030 79 288 0.0 0.0 0.00 0.00 0.00 22 1006.5
20260502034529 80 287 0.0 0.0 0.00 0.00 0.00 22 1006.4
20260502033039 81 287 0.0 0.0 0.00 0.00 0.00 21 1006.1
20260502031528 82 288 0.0 0.0 0.00 0.00 0.00 19 1005.8
20260502030028 82 288 0.0 0.0 0.00 0.00 0.00 19 1005.9
20260502024527 82 288 0.0 0.0 0.00 0.00 0.00 20 1005.6
20260502023027 83 287 2.0 0.0 0.00 0.00 0.00 19 1005.4
20260502021526 83 294 3.0 0.0 0.00 0.00 0.00 19 1005.3
20260502020026 84 38 3.0 0.0 0.00 0.00 0.00 19 1005.3
20260502014528 85 263 2.0 0.0 0.00 0.00 0.00 18 1005.3
20260502013024 85 259 4.0 0.0 0.00 0.00 0.00 18 1005.3
20260502011523 85 261 5.0 0.0 0.00 0.00 0.00 17 1005.4
20260502010023 86 311 6.0 0.0 0.00 0.00 0.00 16 1005.4
20260502004539 86 263 6.0 0.0 0.00 0.00 0.00 17 1005.1
20260502003021 86 355 5.0 0.0 0.00 0.00 0.00 18 1005.3
20260502001520 86 263 5.0 0.0 0.00 0.00 0.00 19 1005.2
20260502000018 86 279 4.0 0.0 0.00 0.00 0.00 20 1005.3
20260501234526 86 264 6.0 0.0 0.00 0.00 0.00 19 1005.4
20260501233016 86 264 5.0 0.0 0.00 0.00 0.00 19 1005.5
20260501231519 85 298 6.0 0.0 0.00 0.00 0.00 19 1005.6
20260501230015 85 328 6.0 0.0 0.00 0.00 0.00 19 1005.7
20260501224513 85 237 7.0 0.0 0.00 0.00 0.00 20 1005.9
20260501223012 84 304 4.0 0.0 0.00 0.00 0.00 20 1005.9
20260501221511 84 286 6.0 0.0 0.00 0.00 0.00 21 1006.1
20260501220009 84 315 2.0 0.0 0.00 0.00 0.00 21 1006.4
20260501214510 84 311 7.0 0.0 0.00 0.00 0.00 20 1006.6
20260501213008 83 300 6.0 0.0 0.00 0.00 0.00 22 1006.9
20260501211508 84 265 3.0 0.0 0.00 0.00 0.00 21 1007.1
20260501210006 83 272 5.0 0.0 0.00 0.00 0.00 22 1007.2
20260501204504 83 275 5.0 0.0 0.00 0.00 0.00 25 1007.4
20260501203003 82 253 5.0 0.0 0.00 0.00 0.00 24 1007.5
20260501201502 82 241 4.0 0.0 0.00 0.00 0.00 25 1007.6
20260501200100 81 229 3.0 0.0 0.00 0.00 0.00 24 1007.8
20260501194600 81 229 4.0 0.0 0.00 0.00 0.00 25 1008.0
20260501193055 80 232 3.0 0.0 0.00 0.00 0.00 26 1008.3
20260501191554 80 222 5.0 0.0 0.00 0.00 0.00 27 1008.5